Flag for Canada Weather past 2 weeks in Halifax, Nova Scotia, Canada

Now
68 °F

Passing clouds.


Feels Like: 68 °F
Forecast: 61 / 70 °F
Wind: 12 mph from Southwest

Location: Halifax International Airport

Current Time: Aug 28, 2014 at 12:56:02 AM

Latest Report: Aug 28, 2014 at 12:00 AM


Visibility: 15 mi

Pressure: 29.83 "Hg

Humidity: 78%

Dew point: 61 °F

Location of HalifaxLocation

Historic Weather in Halifax — Graph

°F

Halifax temperature yesterday

Maximum temperature yesterday: 81 °F (at 4:00 PM)
Minimum temperature yesterday: 59 °F (at 5:00 AM)
Average temperature yesterday: 69 °F

Past Weeks' High & Low Weather Summary

 TemperatureHumidityPressure
High81 °F (Aug 26, 4:00 PM)100% (Aug 15, 2:00 PM)30.19 "Hg (Aug 15, 2:00 PM)
Low54 °F (Aug 24, 5:00 AM)45% (Aug 20, 5:00 PM)29.59 "Hg (Aug 18, 2:00 PM)
Average64 °F81%29.97 "Hg
* Reported Midnight between Aug 12 and Aug 13 — Midnight between Aug 27 and Aug 28, Halifax, Weather by CustomWeather, © 2014

Note: Actual official high and low records may vary slightly from our data, if they occured in-between our weather recording intervals... More about our weather records

Advertising

Halifax weather history for previous 24 hours

 ConditionsComfort  
Time TempWeatherWind HumidityBarometerVisibility
12:00 AM
Aug 28
68 °FPassing clouds.12 mph78%29.83 "Hg15 mi
11:00 PM
Aug 27
68 °FPassing clouds.8 mph78%29.83 "Hg15 mi
10:00 PM70 °FPassing clouds.12 mph78%29.84 "Hg15 mi
9:00 PM70 °FPassing clouds.10 mph78%29.85 "Hg15 mi
8:00 PM73 °FPassing clouds.13 mph69%29.84 "Hg15 mi
7:00 PM79 °FPassing clouds.14 mph58%29.83 "Hg15 mi
6:00 PM79 °FPartly sunny.13 mph61%29.83 "Hg15 mi
5:00 PM79 °FPartly sunny.15 mph61%29.83 "Hg15 mi
4:00 PM81 °FPassing clouds.14 mph62%29.84 "Hg15 mi
2:00 PM79 °FPassing clouds.12 mph65%29.88 "Hg15 mi
1:00 PM77 °FPassing clouds.14 mph65%29.89 "Hg15 mi
11:00 AM73 °FPassing clouds.14 mph69%29.93 "Hg15 mi
10:00 AM70 °FPassing clouds.6 mph73%29.94 "Hg15 mi
9:00 AM66 °FPassing clouds.15 mph78%29.94 "Hg15 mi
8:00 AM63 °FPassing clouds.13 mph88%29.95 "Hg15 mi
7:00 AM59 °FPassing clouds.8 mph100%29.97 "Hg15 mi
6:00 AM59 °FPassing clouds.6 mph94%29.97 "Hg15 mi
5:00 AM59 °FClear.8 mph94%29.98 "Hg15 mi
4:00 AM61 °FClear.13 mph88%29.99 "Hg15 mi
3:00 AM61 °FClear.9 mph88%29.99 "Hg15 mi
2:00 AM61 °FClear.10 mph88%30.02 "Hg15 mi
1:00 AM63 °FClear.13 mph88%30.02 "Hg15 mi
12:00 AM63 °FClear.10 mph94%30.02 "Hg15 mi
Weather by CustomWeather, © 2014

See weather overviewHow to use our weather pages